Retour au catalogue

STARLINK-1226

ActifCommunicationsVLEO
NORAD 45229·PAYLOAD·🇺🇸 United States

Lancé Feb 17, 2020 depuis Cape Canaveral Space Force Station

Loading…

Prochains Passages (prochaines 24 heures)

TLE

FraisSource: CelesTrak SupGP

Époque: Sep 14, 2026, 20:36 UTC

1 45229C 20012BD  26257.85881944  .00047902  00000+0  69789-3 0  2576
2 45229  53.1491 180.8899 0002818 113.7390 235.8535 15.55071045    18

Suivez STARLINK-1226 en temps réel avec AllMySat

Download on the App Store